Richmond International Airport Airport (RIC)

 

Airport Diagram
Current Weather/Forecast (VFR Conditions)
METAR KRIC 211454Z COR 26007KT 10SM FEW010 FEW050 BKN070 BKN180 08/06 A3007 RMK AO2 SLP189 T00780056 53019
TAF KRIC 211130Z 2111/2212 22007KT P6SM SCT023 SCT040 BKN070 FM211800 27006KT P6SM BKN020 FM220000 06003KT P6SM OVC030

All Charts
General
Chart Name Download
AIRPORT DIAGRAM
TAKEOFF MINIMUMS
ALTERNATE MINIMUMS
HOT SPOT

Departures
Chart Name Download
COLIN EIGHT
KALLI FIVE (RNAV)
KALLI FIVE (RNAV), CONT.1
LUCYL FIVE (RNAV)
LUCYL FIVE (RNAV), CONT.1
READE SIX
READE SIX, CONT.1

Arrivals
Chart Name Download
DUCXS FOUR (RNAV)
POWTN FOUR (RNAV)
SPIDR THREE (RNAV)

Approaches
Chart Name Download
ILS OR LOC RWY 02
ILS OR LOC RWY 16
ILS OR LOC RWY 34
ILS RWY 34 (SA CAT I)
ILS RWY 34 (CAT II - III)
RNAV (RNP) Y RWY 02
RNAV (RNP) Y RWY 16
RNAV (RNP) Y RWY 20
RNAV (RNP) Y RWY 34
RNAV (GPS) RWY 07
RNAV (GPS) RWY 25
RNAV (GPS) Z RWY 02
RNAV (GPS) Z RWY 16
RNAV (GPS) Z RWY 20
RNAV (GPS) Z RWY 34
VOR RWY 02
VOR RWY 16
VOR RWY 20
VOR RWY 25
VOR RWY 34


Inbound Traffic (Arrivals)

No inbound traffic.


Outbound Traffic (Departures)

No outbound traffic.